Вернуться в каталог

SL-12 DEB

LostHEO
NORAD 42981·DEBRIS·🇷🇺 Russia

Запущен Sep 2, 2010 с Baikonur Cosmodrome

Loading…

Ближайшие Пролёты (ближайшие 24 часа)

TLE

УстаревшееSource: Space-Track

Эпоха: Sep 19, 2022, 06:43 UTC

1 42981U 10041W   22262.28026587  .00000454  00000-0  17033-2 0  9991
2 42981  65.6499 199.7496 5524752 320.3794 105.7994  4.49651688 82262

Отслеживайте SL-12 DEB в реальном времени с AllMySat

Download on the App Store